Preview of NWS' New Version of Forecast
This preview is not operational and should not be used for support decisions.

Regional Weather Roundup (RWR)

Issued by National Weather Service (NWS)

                            
000
ASUS44 KFWD 241615
RWRTX 
NORTH TEXAS HOURLY WEATHER ROUNDUP
NATIONAL WEATHER SERVICE FORT WORTH TX
1100 AM CDT WED APR 24 2019

NOTE: "FAIR" INDICATES FEW OR NO CLOUDS BELOW 12,000 FEET WITH NO
SIGNIFICANT WEATHER AND/OR OBSTRUCTIONS TO VISIBILITY.

TXZ118-119-241700-
DALLAS/FORT WORTH METROPLEX
  
CITY           SKY/WX    TMP DP  RH WIND       PRES   REMARKS
DFW AIRPORT    LGT RAIN  63  60  90 SE5       29.91R                  
DALLAS LOVE    CLOUDY    65  61  87 S9        29.92R                  
FTW MEACHAM    LGT RAIN  61  60  97 E16       29.86F                  
DAL-EXECUTIVE  LGT RAIN  63  61  93 SE7       29.91R                  
FTW-ALLIANCE   LGT RAIN  63  59  87 E20       29.87F FOG              
FTW-NAS-JRB    CLOUDY    63  60  90 E15       29.87F                  
FTW-SPINKS     PTSUNNY   63  63 100 E10       29.91F                  
ARLINGTON      FAIR      64  60  87 E6        29.90F                  
GRAND PRAIRIE  PTSUNNY   63  63 100 E7        29.91F                  
ADDISON        CLOUDY    63  61  94 SE8       29.95R                  
MESQUITE       CLOUDY    63  63 100 E3        29.94R                  
LANCASTER      RAIN      62  61  95 CALM      29.96R                  
$$

TXZ091>094-102>105-117-120-121-131>134-241700-
NORTH CENTRAL TEXAS
  
CITY           SKY/WX    TMP DP  RH WIND       PRES   REMARKS
SHRMAN/DENISON PTSUNNY   64  59  82 CALM      29.93F                  
GAINESVILLE    FAIR      62  60  94 CALM      29.94R                  
BOWIE          CLOUDY    60  58  96 CALM      29.93R FOG              
BRIDGEPORT     CLOUDY    61  61 100 E8        29.90F                  
DECATUR        CLOUDY    61  59  92 CALM      29.94R                  
DENTON         LGT RAIN  62  59  90 E16       29.90F                  
MCKINNEY       PTSUNNY   64  62  93 E6        29.93S                  
BONHAM         FAIR      65  63  94 NE3       29.92F                  
GREENVILLE     PTSUNNY   66  63  88 CALM      29.94S                  
ROCKWALL       RAIN      63  62  99 CALM      29.96R                  
TERRELL        LGT RAIN  65  60  84 W3        29.96R                  
WAXAHACHIE     LGT RAIN  62  62 100 SE5       29.94F                  
CLEBURNE       FAIR      61  61 100 SE14      29.90F                  
GRANBURY       HVY RAIN  63  60  91 MISG      29.92R                  
$$

TXZ083>090-098>101-113>116-127>130-139>142-154-155-241700-
WESTERN NORTH TEXAS
  
CITY           SKY/WX    TMP DP  RH WIND       PRES   REMARKS
WICHITA FALLS  CLOUDY    58  57  97 N12       29.93R FOG              
WF-KICKAPOO    CLOUDY    58  56  94 N15       29.95F                  
VERNON         CLOUDY    58  53  83 N10       29.97R                  
ABILENE        LGT RAIN  59  58  96 NE3       29.95R FOG              
ABILENE-DYESS  LGT RAIN  57  54  88 N7        29.95R FOG              
GRAHAM         CLOUDY    59  58  98 CALM      29.98R                  
BRECKENRIDGE   DRIZZLE   63  61  94 NW3       29.96R                  
CISCO          LGT RAIN  61  59  94 CALM      29.95R                  
MINERAL WELLS  FAIR      62  59  90 VRB3      29.94R                  
STEPHENVILLE   CLOUDY    60  58  92 SW7G17    30.02R                  
COMANCHE       LGT RAIN  59  59 100 SE8       29.95R                  
BROWNWOOD      FAIR      61  61 100 NE8       29.92F                  
COLEMAN        LGT RAIN  60  57  91 NE9       29.89F                  
BRADY          CLOUDY    61  57  88 E15       29.88S                  
$$

TXZ143>147-156>162-174-175-241700-
CENTRAL TEXAS
  
CITY           SKY/WX    TMP DP  RH WIND       PRES   REMARKS
WACO           RAIN      62  60  93 SW5       29.93F FOG              
WACO-TSTC      LGT RAIN  63  63 100 E7        29.92F                  
WACO-MCGREGOR  LGT RAIN N/A N/A N/A SW6       29.95R                  
HILLSBORO      LGT RAIN  62  62 100 SE9       29.94R                  
CORSICANA      LGT RAIN  64  61  90 S5        29.96R                  
MEXIA          LGT RAIN  61  60  98 E3        29.94S                  
HEARNE         CLOUDY    61  61 100 N8        29.93F                  
CAMERON        TSTM      62  60  93 E7        29.94R                  
TEMPLE           N/A     62  62 100 VRB3      29.95F                  
KILLEEN        LGT RAIN  60  58  94 NE14      29.84F                  
KILLEEN-SKYLRK FAIR      61  59  93 N10       29.91F FOG              
FORT HOOD      LGT RAIN  61  59  94 NE12      29.82F                  
GATESVILLE     LGT RAIN  61  61 100 CALM      29.94F                  
HAMILTON       LGT RAIN  60  60 100 E9        29.88F                  
LAMPASAS       FAIR      61  60  96 NE12      29.86F                  
$$

TXZ095>097-106>112-122>126-135>138-148>153-164>167-241700-
EAST TEXAS
  
CITY           SKY/WX    TMP DP  RH WIND       PRES   REMARKS
PARIS          PTSUNNY   65  60  84 NW5       29.93F                  
SULPHUR SPRNGS LGT RAIN  65  62  91 CALM      29.94F                  
MOUNT PLEASANT FAIR      67  63  89 CALM      29.94F                  
GILMER         LGT RAIN  67  63  86 SE7       29.94F                  
MINEOLA        LGT RAIN  64  64 100 E3        29.91F                  
TYLER          LGT RAIN  68  66  93 S12       29.91F                  
LONGVIEW       CLOUDY    70  64  81 S9        29.95S                  
MARSHALL       CLOUDY    70  63  78 S6        29.98S                  
ATHENS         PTSUNNY   64  64 100 S5        29.91F                  
PALESTINE      CLOUDY    67  66  97 CALM      29.95S                  
JACKSONVILLE   CLOUDY    68  64  86 CALM      29.95F                  
HENDERSON      CLOUDY    69  63  81 SE3       29.95F                  
CENTER         CLOUDY    69  62  77 SW5       29.97                   
NACOGDOCHES    CLOUDY    70  65  84 VRB7      29.95F                  
LUFKIN         CLOUDY    70  64  81 SE7       29.92F                  
$$

SUPPLEMENTAL OBSERVATIONS (NWS FORT WORTH AREA)
  
CITY           SKY/WX    TMP DP  RH WIND       PRES   REMARKS
CADDO GRASSLND   N/A     66  61  82 VRB1        N/A                   
LBJ GRASSLAND    N/A    N/A N/A N/A N2          N/A                   
POSSUM KINGDOM   N/A     61  59  94 W3G14       N/A                   
GRANBURY         N/A     63  59  88 SW8         N/A                   
COMANCHE         N/A     64  61  88 NW5G17      N/A                   
MCGREGOR         N/A     63  59  88 S3          N/A                   
TEMPLE           N/A     63  59  88 NE8         N/A                   
LAKE LIMESTONE   N/A    N/A N/A N/A NE5         N/A                   
PALESTINE        N/A     70  64  83 E2          N/A                   
$$

SUPPLEMENTAL OBSERVATIONS (NWS NORMAN AREA)
  
CITY           SKY/WX    TMP DP  RH WIND       PRES   REMARKS
GOODLETT         N/A     58  46  65 N7        29.97R                  
ODELL            N/A     57  53  84 NE8       29.98R                  
CROWELL          N/A     57  53  85 N8        29.99R                  
KNOX CITY        N/A     58  54  84 N10       29.96S                  
SEYMOUR          N/A     58  53  83 N15       29.94R                  
MILLERS CREEK    N/A     59  55  88 VRB9        N/A                   
$$

SUPPLEMENTAL OBSERVATIONS (NWS SAN ANGELO AREA)
  
CITY           SKY/WX    TMP DP  RH WIND       PRES   REMARKS
WEINERT          N/A     59  53  83 N9        29.96R                  
HASKELL          N/A     57  53  85 N13       29.96R                  
THROCKMORTON     N/A     57  56  96 N7        29.97R                  
STAMFORD         N/A     58  55  92 N12       29.96F                  
CLYDE            N/A     59  58  95 S3        29.97R                  
HAMBY            N/A     59  55  88 N5          N/A                   
IVIE RESERVOIR   N/A     61  55  82 E12         N/A                   
COLORADO BEND    N/A     63  59  88 E8G16       N/A                   
$$

SUPPLEMENTAL OBSERVATIONS (NWS SHREVEPORT AREA)
  
CITY           SKY/WX    TMP DP  RH WIND       PRES   REMARKS
CADDO LAKE       N/A     72  63  73 S3          N/A                   
LUFKIN           N/A     72  64  78 MISG        N/A                   
N SABINE NF      N/A     73  64  73 MISG        N/A                   
$$

SUPPLEMENTAL OBSERVATIONS ARE A COLLECTION OF AUTOMATED INSTRUMENTS
THAT ARE MAINTAINED BY A VARIETY OF FEDERAL AND STATE AGENCIES. 
CERTAIN ELEMENTS...SUCH AS HUMIDITY VALUES AND SUSTAINED WIND 
SPEEDS...MAY BE APPROXIMATED.